TimeCET,TemperatureF,Dew PointF,Humidity,Sea Level PressureIn,VisibilityMPH,Wind Direction,Wind SpeedMPH,Gust SpeedMPH,PrecipitationIn,Events,Conditions,WindDirDegrees,DateUTC
12:00 AM,41.0,32.0,70,29.71,-9999.0,SE,17.3,28.8,N/A,,Clear,140,2012-10-31 23:00:00
12:30 AM,41.0,32.0,70,29.71,-9999.0,SE,16.1,-,N/A,,Clear,143,2012-10-31 23:30:00
1:00 AM,40,30,56,29.73,12,SE,8.9,,,,Partly Cloudy,140,2012-11-01 00:00:00
1:00 AM,41.0,30.2,65,29.68,-9999.0,SE,12.7,-,N/A,,Clear,140,2012-11-01 00:00:00
1:30 AM,39.2,30.2,70,29.68,-9999.0,SE,6.9,-,N/A,,Clear,130,2012-11-01 00:30:00
2:00 AM,39.2,30.2,70,29.65,-9999.0,ESE,11.5,-,N/A,,Clear,120,2012-11-01 01:00:00
2:30 AM,39.2,30.2,70,29.62,-9999.0,SE,10.4,-,N/A,,Clear,130,2012-11-01 01:30:00
3:00 AM,39.2,30.2,70,29.62,-9999.0,SE,12.7,-,N/A,,Clear,140,2012-11-01 02:00:00
3:30 AM,39.2,30.2,70,29.62,-9999.0,SSE,8.1,-,N/A,,Clear,150,2012-11-01 02:30:00
4:00 AM,39.2,30.2,70,29.59,-9999.0,SE,11.5,-,N/A,,Clear,140,2012-11-01 03:00:00
4:30 AM,41.0,30.2,65,29.59,-9999.0,SE,8.1,-,N/A,,Clear,130,2012-11-01 03:30:00
5:00 AM,41.0,30.2,65,29.56,-9999.0,SE,8.1,-,N/A,,Clear,140,2012-11-01 04:00:00
5:30 AM,42.8,32.0,66,29.53,-9999.0,ESE,8.1,-,N/A,,Clear,110,2012-11-01 04:30:00
6:00 AM,41.0,32.0,70,29.53,-9999.0,NE,4.6,-,N/A,,Clear,50,2012-11-01 05:00:00
6:30 AM,41.0,33.8,76,29.50,-9999.0,ESE,8.1,-,N/A,,Clear,110,2012-11-01 05:30:00
7:00 AM,45,34,56,,16,SE,8.9,,,,Scattered Clouds,140,2012-11-01 06:00:00
7:00 AM,44.6,33.8,66,29.50,-9999.0,ESE,9.2,-,N/A,,Clear,120,2012-11-01 06:00:00
7:30 AM,46.4,33.8,62,29.50,-9999.0,SE,15.0,-,N/A,,Clear,140,2012-11-01 06:30:00
8:00 AM,46.4,33.8,62,29.47,6.2,SE,15.0,-,N/A,,Scattered Clouds,140,2012-11-01 07:00:00
8:14 AM,46.4,33.8,62,29.47,6.2,SE,19.6,-,N/A,Rain,Light Rain,140,2012-11-01 07:14:00
8:30 AM,46.4,35.6,66,29.47,6.2,SE,18.4,-,N/A,Rain,Light Rain,140,2012-11-01 07:30:00
9:00 AM,44.6,35.6,71,29.47,6.2,SE,16.1,-,N/A,Rain,Light Rain,140,2012-11-01 08:00:00
9:30 AM,44.6,37.4,76,29.44,6.2,SE,19.6,-,N/A,Rain,Light Rain,140,2012-11-01 08:30:00
10:00 AM,44.6,37.4,76,29.44,6.2,SE,18.4,-,N/A,Rain,Light Rain,130,2012-11-01 09:00:00
10:30 AM,44.6,39.2,81,29.44,6.2,SE,15.0,-,N/A,Rain,Light Rain,140,2012-11-01 09:30:00
10:51 AM,44.6,39.2,81,29.42,6.2,SE,16.1,-,N/A,Rain,Light Rain,140,2012-11-01 09:51:00
11:00 AM,44.6,39.2,81,29.42,6.2,SE,16.1,-,N/A,Rain,Light Rain,140,2012-11-01 10:00:00
11:30 AM,44.6,41.0,87,29.42,6.2,SE,17.3,29.9,N/A,Rain,Light Rain,140,2012-11-01 10:30:00
12:00 PM,44.6,41.0,87,29.39,6.2,SSE,13.8,25.3,N/A,,Overcast,150,2012-11-01 11:00:00
12:30 PM,44.6,41.0,87,29.39,6.2,SE,21.9,-,N/A,,Overcast,140,2012-11-01 11:30:00
1:00 PM,44,41,84,29.40,9,SE,20.1,,,,Partly Cloudy,140,2012-11-01 12:00:00
1:00 PM,44.6,41.0,87,29.39,6.2,SE,17.3,-,N/A,,Overcast,140,2012-11-01 12:00:00
1:30 PM,44.6,41.0,87,29.39,6.2,SE,13.8,-,N/A,,Overcast,140,2012-11-01 12:30:00
1:53 PM,44.6,41.0,87,29.36,6.2,SSE,13.8,-,N/A,Rain,Light Rain,150,2012-11-01 12:53:00
2:00 PM,44.6,41.0,87,29.36,5.6,SSE,13.8,-,N/A,Rain,Light Rain,150,2012-11-01 13:00:00
2:21 PM,44.6,41.0,87,29.36,3.1,SE,13.8,-,N/A,Rain,Rain,140,2012-11-01 13:21:00
2:30 PM,44.6,41.0,87,29.36,3.1,SE,12.7,-,N/A,Rain,Rain,140,2012-11-01 13:30:00
2:35 PM,44.6,41.0,87,29.36,1.9,SE,9.2,-,N/A,Rain,Rain,140,2012-11-01 13:35:00
2:52 PM,44.6,42.8,93,29.36,2.2,SE,6.9,-,N/A,Rain,Rain,140,2012-11-01 13:52:00
3:00 PM,44.6,42.8,93,29.36,2.5,SE,6.9,-,N/A,Rain,Rain,130,2012-11-01 14:00:00
3:03 PM,44.6,42.8,93,29.36,3.1,ESE,4.6,-,N/A,Rain,Rain,120,2012-11-01 14:03:00
3:23 PM,44.6,42.8,93,29.36,4.3,SSE,5.8,-,N/A,Rain,Light Rain,150,2012-11-01 14:23:00
3:30 PM,44.6,42.8,93,29.36,4.3,SE,5.8,-,N/A,Rain,Light Rain,140,2012-11-01 14:30:00
3:45 PM,44.6,42.8,93,29.39,3.1,Variable,2.3,-,N/A,Rain,Light Rain,0,2012-11-01 14:45:00
4:00 PM,44.6,42.8,93,29.39,3.7,Variable,2.3,-,N/A,Rain,Light Rain,0,2012-11-01 15:00:00
4:23 PM,44.6,42.8,93,29.39,3.1,Variable,2.3,-,N/A,Rain,Light Rain,0,2012-11-01 15:23:00
4:30 PM,44.6,42.8,93,29.39,-9999.0,Variable,2.3,-,N/A,Rain,Light Rain,0,2012-11-01 15:30:00
4:39 PM,44.6,42.8,93,29.39,1.9,Variable,2.3,-,N/A,Rain,Light Rain,0,2012-11-01 15:39:00
4:52 PM,44.6,42.8,93,29.39,1.6,Variable,1.2,-,N/A,Rain,Light Rain,0,2012-11-01 15:52:00
5:00 PM,44.6,42.8,93,29.39,1.4,Variable,1.2,-,N/A,Rain,Light Rain,0,2012-11-01 16:00:00
5:16 PM,44.6,42.8,93,29.39,0.9,South,2.3,-,N/A,Rain,Light Rain,180,2012-11-01 16:16:00
5:30 PM,44.6,42.8,93,29.39,0.9,Variable,2.3,-,N/A,Rain,Light Rain,0,2012-11-01 16:30:00
6:00 PM,44.6,42.8,93,29.39,0.9,ESE,3.5,-,N/A,Rain,Light Rain,120,2012-11-01 17:00:00
6:30 PM,44.6,42.8,93,29.39,0.9,SSE,3.5,-,N/A,Rain,Light Rain,150,2012-11-01 17:30:00
7:00 PM,45,44,92,29.44,1,SSW,4.5,,,Rain,Light Rain,200,2012-11-01 18:00:00
7:00 PM,44.6,42.8,93,29.42,1.2,South,4.6,-,N/A,,Overcast,190,2012-11-01 18:00:00
7:13 PM,44.6,42.8,93,29.42,0.9,South,6.9,-,N/A,,Overcast,190,2012-11-01 18:13:00
7:19 PM,44.6,42.8,93,29.42,0.7,South,6.9,-,N/A,,Overcast,190,2012-11-01 18:19:00
7:30 PM,44.6,42.8,93,29.42,0.7,South,6.9,-,N/A,,Overcast,190,2012-11-01 18:30:00
8:00 PM,44.6,44.6,100,29.42,1.2,South,4.6,-,N/A,,Overcast,180,2012-11-01 19:00:00
8:21 PM,44.6,42.8,93,29.42,1.6,SW,4.6,-,N/A,,Overcast,220,2012-11-01 19:21:00
8:30 PM,44.6,42.8,93,29.44,1.9,SW,4.6,-,N/A,,Overcast,220,2012-11-01 19:30:00
9:00 PM,44.6,42.8,93,29.44,3.1,SSW,5.8,-,N/A,,Overcast,200,2012-11-01 20:00:00
9:10 PM,44.6,42.8,93,29.44,3.1,SW,5.8,-,N/A,,Overcast,220,2012-11-01 20:10:00
9:30 PM,44.6,42.8,93,29.44,3.1,SSW,4.6,-,N/A,,Overcast,200,2012-11-01 20:30:00
10:00 PM,44.6,42.8,93,29.44,2.8,South,3.5,-,N/A,,Mostly Cloudy,190,2012-11-01 21:00:00
10:30 PM,44.6,42.8,93,29.47,2.5,SW,3.5,-,N/A,,Mostly Cloudy,230,2012-11-01 21:30:00
10:52 PM,44.6,42.8,93,29.44,2.5,Variable,1.2,-,N/A,,Mostly Cloudy,0,2012-11-01 21:52:00
11:00 PM,44.6,42.8,93,29.44,2.5,South,1.2,-,N/A,,Overcast,170,2012-11-01 22:00:00
11:30 PM,44.6,42.8,93,29.47,2.2,SSW,1.2,-,N/A,,Overcast,200,2012-11-01 22:30:00